Riverton, WY

2:48 PM MDT on March 30, 2017 (GMT -0600)
Riverton Regional

Weather History for KRIW - May, 2014

Change the Weather History Date:

Saturday, May 17, 2014

  Actual Average Record
Temperature  
Mean Temperature 55 °F 54 °F  
Max Temperature 71 °F 68 °F 83 °F (2006)
Min Temperature 38 °F 41 °F 30 °F (1999)
Degree Days  
Heating Degree Days 10 11  
Month to date heating degree days 287 228  
Since 1 July heating degree days 7703 7624  
Cooling Degree Days 0 0  
Month to date cooling degree days 0 0  
Year to date cooling degree days 0 0  
Growing Degree Days 4 (Base 50)    
Moisture  
Dew Point 37 °F    
Average Humidity 58    
Maximum Humidity 92    
Minimum Humidity 23    
Precipitation  
Precipitation 0.00 in 0.06 in 1.12 in (2000)
Month to date precipitation 0.54 0.98  
Year to date precipitation 2.16 3.34  
Snow  
Snow 0.00 in - - ()
Month to date snowfall 2.7  
Since 1 July snowfall 55.8  
Snow Depth 0.00 in    
Sea Level Pressure  
Sea Level Pressure 29.86 in    
Wind  
Wind Speed 5 mph (North)    
Max Wind Speed 12 mph    
Max Gust Speed 16 mph    
Visibility 10 miles    
Events      
T = Trace of Precipitation, MM = Missing Value Source: NWS Daily Summary

Daily Weather History Graph

Daily Weather History Graph

Search for Another Location

Airport or City:

Trip Planner

Search our weather history database for the weather conditions in past years. The results will help you decide how hot, cold, wet, or windy it might be!

Date:

Astronomy

May. 17, 2014 Rise Set
Actual Time 5:48 AM MDT 8:32 PM MDT
Civil Twilight 5:15 AM MDT 9:05 PM MDT
Nautical Twilight 4:34 AM MDT 9:47 PM MDT
Astronomical Twilight 3:46 AM MDT 10:35 PM MDT
Moon 11:35 PM MDT (5/17) 8:34 AM MDT (5/17)
Length of Visible Light 15h 50m
Length of Day
14h 44m
Waning Gibbous, 89% of the Moon is Illuminated
May 17
Waning Gibbous
May 21
Last Quarter
May 28
New
Jun 5
First Quarter
Jun 12
Full

Hourly Weather History & Observations

Time (MDT) Temp. Windchill Dew Point Humidity Pressure Visibility Wind Dir Wind Speed Gust Speed Precip Events Conditions
12:53 AM 45.0 °F 41.2 °F 39.0 °F 80% 29.97 in 10.0 mi East 6.9 mph - N/A   Clear
1:53 AM 46.0 °F 43.9 °F 39.9 °F 79% 29.95 in 10.0 mi NE 4.6 mph - N/A   Clear
2:53 AM 45.0 °F 41.2 °F 39.0 °F 80% 29.95 in 10.0 mi NNW 6.9 mph - N/A   Mostly Cloudy
3:53 AM 41.0 °F 37.1 °F 37.0 °F 86% 29.94 in 10.0 mi NNW 5.8 mph - N/A   Scattered Clouds
4:53 AM 39.0 °F 35.7 °F 36.0 °F 89% 29.93 in 10.0 mi NNW 4.6 mph - N/A   Clear
5:53 AM 37.9 °F 32.7 °F 36.0 °F 93% 29.95 in 10.0 mi NW 6.9 mph - N/A   Clear
6:53 AM 43.0 °F 38.8 °F 39.0 °F 86% 29.94 in 10.0 mi West 6.9 mph - N/A   Partly Cloudy
7:53 AM 46.9 °F - 39.9 °F 77% 29.93 in 10.0 mi WSW 8.1 mph - N/A   Clear
8:53 AM 52.0 °F - 39.9 °F 63% 29.93 in 10.0 mi Variable 5.8 mph - N/A   Clear
9:53 AM 54.0 °F - 39.9 °F 59% 29.93 in 10.0 mi NW 4.6 mph - N/A   Clear
10:53 AM 57.0 °F - 39.9 °F 53% 29.92 in 10.0 mi North - - N/A   Clear
11:53 AM 61.0 °F - 41.0 °F 48% 29.90 in 10.0 mi NE 6.9 mph - N/A   Partly Cloudy
12:53 PM 62.1 °F - 39.0 °F 43% 29.88 in 10.0 mi Variable 4.6 mph - N/A   Clear
1:53 PM 64.9 °F - 39.0 °F 39% 29.84 in 10.0 mi Variable 5.8 mph - N/A   Clear
2:53 PM 66.0 °F - 36.0 °F 33% 29.82 in 10.0 mi North - - N/A   Clear
3:53 PM 68.0 °F - 33.1 °F 27% 29.80 in 10.0 mi Variable 3.5 mph - N/A   Clear
4:53 PM 70.0 °F - 32.0 °F 25% 29.78 in 10.0 mi Variable 5.8 mph - N/A   Partly Cloudy
5:53 PM 70.0 °F - 30.0 °F 23% 29.78 in 10.0 mi Variable 3.5 mph - N/A   Clear
6:53 PM 70.0 °F - 30.9 °F 24% 29.74 in 10.0 mi South 10.4 mph - N/A   Clear
7:53 PM 66.9 °F - 33.1 °F 28% 29.74 in 10.0 mi Calm Calm - N/A   Clear
8:53 PM 57.9 °F - 32.0 °F 37% 29.75 in 10.0 mi Calm Calm - N/A   Clear
9:53 PM 57.9 °F - 33.1 °F 39% 29.75 in 10.0 mi NE 8.1 mph - N/A   Clear
10:53 PM 55.0 °F - 36.0 °F 49% 29.74 in 10.0 mi NE 5.8 mph - N/A   Clear
11:53 PM 53.1 °F - 39.0 °F 59% 29.73 in 10.0 mi ENE 5.8 mph - N/A   Clear